Regional Weather Roundup
Issued by NWS

Home | Current Version | Previous Version | Text Only | Print | Product List | Glossary On
Versions: 1 2 3 4 5 6 7 8 9 10 11 12 13 14 15 16 17 18 19 20 21 22 23 24 25 26 27 28 29 30 31 32 33 34 35 36 37 38 39 40 41 42 43 44 45 46 47 48 49 50
000
ASUS46 KPQR 240110
RWROR

OREGON REGIONAL WEATHER ROUNDUP
NATIONAL WEATHER SERVICE PORTLAND OR
600 PM PDT WED AUG 23 2017

NOTE: "FAIR" INDICATES FEW OR NO CLOUDS BELOW 12,000 FEET WITH
NO SIGNIFICANT WEATHER AND/OR OBSTRUCTIONS TO VISIBILITY.

ORZ001>013-240200-
NORTHWEST OREGON


CITY           SKY/WX    TMP DP  RH WIND       PRES   REMARKS
ASTORIA        PTSUNNY   64  57  78 NW10      30.02S
NEWPORT        MOSUNNY   61  55  82 NW7       30.06F
PORTLAND       PTSUNNY   82  61  48 CALM      29.91F
VANCOUVER WA   PTSUNNY   82  61  48 NW6       29.91F
SCAPPOOSE      PTSUNNY   79  59  50 N10       29.91F
HILLSBORO      PTSUNNY   82  62  50 NE8       29.91F
AURORA         PTSUNNY   78  59  51 S5        29.94F
MCMINNVILLE    MOSUNNY   80  62  54 S10       29.93F
SALEM          MOSUNNY   84  57  39 W3        29.92F
CORVALLIS      SUNNY     81  59  47 NW7       29.96F
EUGENE         MOSUNNY   80  59  48 E5        29.94F
$$

ORZ021-028-240200-
SOUTHWEST OREGON


CITY           SKY/WX    TMP DP  RH WIND       PRES   REMARKS
NORTH BEND     CLOUDY    61  55  82 N17       30.04F
BROOKINGS      PTSUNNY   58  54  86 SE6       30.00F
ROSEBURG       SUNNY     84  58  40 N12       29.93F
SEXTON SUMMIT  MOSUNNY   72  55  55 CALM      30.05F
GRANTS PASS    FAIR      88  57  35 N12       29.93S
MEDFORD        SUNNY     91  49  23 NW6       29.87F SMOKE
$$

ORZ014>016-041-240200-
COLUMBIA GORGE


CITY           SKY/WX    TMP DP  RH WIND       PRES   REMARKS
TROUTDALE      PTSUNNY   80  62  54 N3        29.91F
HOOD RIVER     PTSUNNY   77  57  50 NW6       29.89S
THE DALLES     MOSUNNY   88  57  34 W14G25    29.83F
$$

ORZ029>031-041-044-049-050-061>064-502-503-505>511-240200-
EASTERN OREGON


CITY           SKY/WX    TMP DP  RH WIND       PRES   REMARKS
MADRAS           N/A     81  45  28 MISG        N/A
REDMOND        CLOUDY    84  45  25 N12       29.96F HAZE
BEND           PTSUNNY   82  37  20 SW7G13    30.00S HAZE
PRINEVILLE     MOSUNNY   82  50  32 N7        29.98S HAZE
KLAMATH FALLS  PTSUNNY   81  49  32 N5        30.03F
LAKEVIEW       MOSUNNY  N/A N/A N/A NW6       30.08F
HERMISTON      CLOUDY    82  60  47 CALM      29.82F HAZE
PENDLETON      PTSUNNY   85  47  26 NW3       29.87F
JOHN DAY       CLOUDY    83  45  26 CALM      29.99S HAZE
MEACHAM        PTSUNNY   79  36  21 CALM      30.01F
LA GRANDE      NOT AVBL
BAKER CITY     PTSUNNY   85  53  33 W5        29.96F HAZE
BURNS          PTSUNNY   82  43  25 W7        30.01F
ROME             N/A     80  51  36 VRB5G18   30.02R
ONTARIO        MOSUNNY   87  58  37 SE5       29.89F
$$



USA.gov is the U.S. government's official web portal to all federal, state and local government web resources and services.